Weather History for KHRL - April, 2013

Change the Weather History Date:

Sunday, April 28, 2013

  Actual Average Record
Temperature  
Mean Temperature 72 °F 78 °F  
Max Temperature 79 °F 88 °F 103 °F (1937)
Min Temperature 65 °F 68 °F 46 °F (1920)
Degree Days  
Heating Degree Days 0 0  
Month to date heating degree days 10 7  
Since 1 July heating degree days 401 621  
Cooling Degree Days 7 13  
Month to date cooling degree days 266 293  
Year to date cooling degree days 621 588  
Growing Degree Days 21 (Base 50)    
Moisture  
Dew Point 68 °F    
Average Humidity 86    
Maximum Humidity 97    
Minimum Humidity 74    
Precipitation  
Precipitation 2.37 in 0.05 in 2.37 in (2013)
Month to date precipitation 2.47 1.56  
Year to date precipitation 5.27 5.32  
Sea Level Pressure  
Sea Level Pressure 29.92 in    
Wind  
Wind Speed 11 mph (East)    
Max Wind Speed 45 mph    
Max Gust Speed 51 mph    
Visibility 7 miles    
Events Fog , Rain , Thunderstorm    
T = Trace of Precipitation, MM = Missing Value Source: NWS Daily Summary

Daily Weather History Graph

Daily Weather History Graph

Search for Another Location

Airport or City:

Trip Planner

Search our weather history database for the weather conditions in past years. The results will help you decide how hot, cold, wet, or windy it might be!

Date:

Astronomy

Apr. 28, 2013 Rise Set
Actual Time 6:55 AM CDT 8:01 PM CDT
Civil Twilight 6:31 AM CDT 8:25 PM CDT
Nautical Twilight 6:02 AM CDT 8:54 PM CDT
Astronomical Twilight 5:33 AM CDT 9:23 PM CDT
Moon 11:22 PM CDT (4/28) 9:23 AM CDT (4/28)
Length of Visible Light 13h 54m
Length of Day
13h 05m
Waning Gibbous, 88% of the Moon is Illuminated
Apr 28
Waning Gibbous
May 2
Last Quarter
May 9
New
May 17
First Quarter
May 24
Full

Hourly Weather History & Observations

Time (CDT) Temp. Dew Point Humidity Pressure Visibility Wind Dir Wind Speed Gust Speed Precip Events Conditions
12:00 AM 73.4 °F 69.8 °F 88% 29.97 in 10.0 mi East 5.8 mph - N/A   Mostly Cloudy
12:25 AM 73.4 °F 69.8 °F 88% 30.00 in 10.0 mi East 4.6 mph - N/A   Overcast
12:30 AM 73.4 °F 69.8 °F 88% 29.99 in 10.0 mi East 5.8 mph - N/A   Overcast
12:39 AM 73.4 °F 69.8 °F 88% 29.99 in 10.0 mi ENE 8.1 mph - N/A   Mostly Cloudy
12:52 AM 73.9 °F 70.0 °F 87% 29.98 in 10.0 mi ENE 10.4 mph - N/A   Mostly Cloudy
1:40 AM 73.4 °F 71.6 °F 94% 29.98 in 10.0 mi ENE 10.4 mph - N/A   Overcast
1:52 AM 73.9 °F 71.1 °F 91% 29.98 in 9.0 mi ENE 9.2 mph - N/A   Mostly Cloudy
2:00 AM 73.4 °F 69.8 °F 88% 29.96 in 9.0 mi ENE 12.7 mph - N/A   Mostly Cloudy
2:23 AM 73.4 °F 71.6 °F 94% 29.96 in 9.0 mi East 11.5 mph - N/A   Mostly Cloudy
2:52 AM 73.0 °F 70.0 °F 90% 29.95 in 8.0 mi ENE 12.7 mph - N/A   Overcast
3:22 AM 73.4 °F 69.8 °F 88% 29.91 in 8.0 mi East 12.7 mph - N/A   Scattered Clouds
3:31 AM 73.4 °F 71.6 °F 94% 29.91 in 8.0 mi East 16.1 mph - N/A   Mostly Cloudy
3:38 AM 73.4 °F 71.6 °F 94% 29.89 in 8.0 mi East 17.3 mph - N/A   Mostly Cloudy
3:52 AM 73.0 °F 71.1 °F 93% 29.91 in 8.0 mi East 18.4 mph - N/A   Mostly Cloudy
4:05 AM 73.4 °F 69.8 °F 88% 29.90 in 8.0 mi East 16.1 mph - N/A   Partly Cloudy
4:52 AM 73.0 °F 70.0 °F 90% 29.89 in 8.0 mi ESE 13.8 mph - N/A   Clear
4:59 AM 73.4 °F 69.8 °F 88% 29.89 in 8.0 mi ESE 13.8 mph - N/A   Scattered Clouds
5:52 AM 73.0 °F 70.0 °F 90% 29.89 in 8.0 mi SE 15.0 mph - N/A   Mostly Cloudy
6:33 AM 73.4 °F 71.6 °F 94% 29.90 in 8.0 mi ESE 10.4 mph - N/A   Mostly Cloudy
6:52 AM 73.9 °F 71.1 °F 91% 29.91 in 8.0 mi East 8.1 mph - N/A   Overcast
7:52 AM 73.9 °F 71.1 °F 91% 29.91 in 7.0 mi East 8.1 mph - N/A   Overcast
8:36 AM 75.2 °F 71.6 °F 89% 29.91 in 8.0 mi ESE 12.7 mph - N/A   Overcast
8:52 AM 75.9 °F 71.1 °F 85% 29.92 in 8.0 mi SE 12.7 mph - N/A   Overcast
9:52 AM 78.1 °F 70.0 °F 76% 29.92 in 10.0 mi SE 13.8 mph - N/A   Overcast
10:08 AM 78.8 °F 69.8 °F 74% 29.91 in 10.0 mi SE 17.3 mph - N/A   Overcast
10:49 AM 78.8 °F 69.8 °F 74% 29.92 in 10.0 mi ESE 11.5 mph - N/A   Mostly Cloudy
10:52 AM 78.1 °F 70.0 °F 76% 29.93 in 10.0 mi ESE 9.2 mph - N/A   Mostly Cloudy
11:50 AM 75.2 °F 69.8 °F 83% 29.91 in 3.0 mi East 11.5 mph - 0.05 in Rain Rain
11:52 AM 75.0 °F 70.0 °F 84% 29.91 in 2.5 mi East 11.5 mph - 0.06 in Rain Heavy Rain
11:59 AM 73.4 °F 71.6 °F 94% 29.91 in 3.0 mi ENE 12.7 mph - 0.01 in Rain , Thunderstorm Light Rain
12:17 PM 73.4 °F 71.6 °F 94% 29.90 in 8.0 mi ENE 15.0 mph - 0.02 in Rain , Thunderstorm Light Rain
12:26 PM 73.4 °F 71.6 °F 94% 29.91 in 6.0 mi ENE 16.1 mph - 0.03 in Rain , Thunderstorm Light Thunderstorms and Rain
12:33 PM 73.4 °F 71.6 °F 94% 29.91 in 5.0 mi ENE 15.0 mph - 0.04 in Rain , Thunderstorm Thunderstorms and Rain
12:39 PM 73.4 °F 69.8 °F 88% 29.91 in 2.5 mi NNE 13.8 mph 21.9 mph 0.16 in Rain , Thunderstorm Heavy Thunderstorms and Rain
12:42 PM 71.6 °F 69.8 °F 94% 29.92 in 1.8 mi NNE 13.8 mph - 0.26 in Rain , Thunderstorm Heavy Thunderstorms and Rain
12:52 PM 72.0 °F 71.1 °F 97% 29.96 in 1.5 mi NW 12.7 mph - 0.51 in Rain , Thunderstorm Heavy Thunderstorms and Rain
12:55 PM 71.6 °F 71.6 °F 100% 29.96 in 1.2 mi NW 15.0 mph - 0.13 in Rain , Thunderstorm Heavy Thunderstorms and Rain
1:04 PM 66.2 °F 64.4 °F 94% 29.97 in 0.5 mi WNW 27.6 mph 41.4 mph 0.59 in Fog , Rain , Thunderstorm Heavy Thunderstorms and Rain
1:16 PM 64.4 °F 64.4 °F 100% 29.98 in 0.2 mi North 44.9 mph 50.6 mph 1.17 in Fog , Rain , Thunderstorm Heavy Thunderstorms and Rain
1:20 PM 64.4 °F 64.4 °F 100% 29.98 in 0.5 mi North 31.1 mph 50.6 mph 1.24 in Fog , Rain , Thunderstorm Light Thunderstorms and Rain
1:25 PM 64.4 °F 64.4 °F 100% 29.95 in 0.5 mi NNE 29.9 mph 50.6 mph 1.30 in Fog , Rain , Thunderstorm Heavy Rain
1:34 PM 64.4 °F 62.6 °F 94% 29.96 in 1.2 mi NNE 29.9 mph 50.6 mph 1.35 in Rain , Thunderstorm Light Rain
1:38 PM 64.4 °F 62.6 °F 94% 29.95 in 4.0 mi NNE 28.8 mph 50.6 mph 1.35 in Rain , Thunderstorm Rain
1:46 PM 66.2 °F 64.4 °F 94% 29.94 in 6.0 mi NE 24.2 mph 35.7 mph 1.36 in Rain , Thunderstorm Light Rain
1:52 PM 66.0 °F 63.0 °F 90% 29.92 in 10.0 mi NE 20.7 mph 31.1 mph 1.36 in Rain Light Rain
2:01 PM 66.2 °F 62.6 °F 88% 29.93 in 10.0 mi NE 15.0 mph 27.6 mph 0.00 in Rain , Thunderstorm Light Rain
2:16 PM 69.8 °F 64.4 °F 83% 29.92 in 10.0 mi NE 11.5 mph - 0.00 in Rain Light Rain
2:52 PM 71.1 °F 64.9 °F 81% 29.90 in 10.0 mi ENE 8.1 mph - 0.00 in   Mostly Cloudy
3:10 PM 71.6 °F 64.4 °F 78% 29.90 in 10.0 mi East 10.4 mph - N/A Thunderstorm Overcast
3:25 PM 71.6 °F 66.2 °F 83% 29.89 in 10.0 mi East 13.8 mph - N/A   Overcast
3:52 PM 70.0 °F 66.0 °F 87% 29.90 in 10.0 mi ESE 12.7 mph - N/A   Overcast
4:32 PM 69.8 °F 66.2 °F 88% 29.86 in 9.0 mi East 13.8 mph - 0.02 in Rain , Thunderstorm Light Thunderstorms and Rain
4:47 PM 68.0 °F 66.2 °F 94% 29.86 in 9.0 mi ESE 15.0 mph - 0.03 in Rain Light Rain
4:52 PM 68.0 °F 66.0 °F 93% 29.86 in 10.0 mi East 11.5 mph - 0.03 in Rain Light Rain
5:35 PM 68.0 °F 66.2 °F 94% 29.85 in 2.5 mi East 9.2 mph - 0.20 in Rain Rain
5:44 PM 68.0 °F 66.2 °F 94% 29.85 in 6.0 mi East 10.4 mph - 0.20 in Rain Light Rain
5:52 PM 68.0 °F 66.0 °F 93% 29.85 in 8.0 mi SE 12.7 mph - 0.20 in   Overcast
6:52 PM 70.0 °F 66.0 °F 87% 29.84 in 9.0 mi SE 8.1 mph - 0.03 in Rain Light Rain
7:52 PM 70.0 °F 66.9 °F 90% 29.84 in 10.0 mi SE 10.4 mph - 0.00 in   Overcast
8:52 PM 69.1 °F 66.0 °F 90% 29.82 in 10.0 mi SSE 15.0 mph - 0.00 in Rain Light Rain
9:52 PM 69.1 °F 66.9 °F 93% 29.89 in 10.0 mi NW 11.5 mph - 0.01 in   Overcast
10:52 PM 69.1 °F 66.9 °F 93% 29.94 in 4.0 mi NNW 4.6 mph - 0.06 in Rain Light Rain
11:52 PM 69.1 °F 68.0 °F 96% 29.93 in 4.0 mi Calm Calm - 0.07 in Rain Light Rain